Location:  
MeteoStar


Sort by weather type Sort by elevation Sort by visibility Sort from west to east north Sort from north to south Alphabetically Sort from strongest wind speed Sort from lowest to highest pressure Sort from highest to lowest dew point temperature Sort coolest temperatures to warmest Sort warm temperatures to coolest
 Metric

Current Observations for United Kingdom sorted from warmest to coolest

Manston07:00ZNot Avail.63 56201016.9NE 10 63180
Lydd Airport 06:20ZClear63 57101015.1NE 16 639
Jersey Airport06:20ZLight Rain63 6141013.1ESE 8 63275
Guernsey Airport06:20ZLight Showers63 6151013.1NE 5 63334
Alderney / Channel Island06:20ZShowers nearby63 59201014.1NE 14 63232
Herstmonceux07:00ZNot Avail.62 56141014.9ENE 9 Gusting to 19 62170
Langdon Bay07:00ZNot Avail.62 57151016NE 20 Gusting to 27 62383
Weybourne07:00ZNot Avail.61 5681020.5ENE 16 6168
Scilly; Saint MaryS06:20ZClear61 57201015.1NE 13 61101
Thorney Island07:00ZNot Avail.60 53201015NE 12 6013
Shoeburyness07:00ZNot Avail.60 57101017.5NE 10 606
Holbeach07:00ZNot Avail.60 5691021ENE 21 Gusting to 27 609
Shoreham Airport07:00ZNot Avail.60 5641015N 13 606
Camborne07:00ZCloudy59 55101015.7NE 4 59285
Mumbles07:00ZNot Avail.59 51201018.4NE 16 59114
Wainfleet07:00ZNot Avail.59 56191021.4ENE 15 599
Coningsby Royal Air Force Base06:50ZClear59 55121021.1ENE 11 5922
London / Gatwick Airport06:20ZNot Avail.59 5541016.1NE 12 59203
Plymouth07:00ZNot Avail.59 51141015.5ENE 10 59164
Isle Of Portland07:00ZNot Avail.58 52201015.0NE 18 Gusting to 26 58173
Donna Nook07:00ZNot Avail.58 5581022.5NE 16 5826
Chivenor07:00ZNot Avail.58 52201016.9N Gusting to 0 5826
Northolt06:50ZClear57 52151017.1NE 10 57124
Norwich Weather Centre06:20ZClear57 54251020.1NE 7 5745
Humberside06:20ZClear57 54101023.1NE 10 57101
London City Airport06:20ZClear57 5241018.1NE 4 5716
Southampton / Weather Centre06:20ZNot Avail.57 54201016.1NNE 8 5729
Kenley07:00ZNot Avail.56 54151017NE 9 56557
Church Lawford07:00ZNot Avail.56 53101020.5NE 9 56351
Pershore07:00ZNot Avail.56 53101020.7NNE 5 56104
Bridlington Mrsc07:00ZNot Avail.56 52251023.7NE 11 5649
Tain Range07:00ZMist56 5541027.3NNE 2 5613
Pembrey Sands07:00ZNot Avail.56 52151018.2NE 10 569
Cardinham07:00ZNot Avail.55 51101015.7NNE 3 55656
High Wicombe Hqstc07:00ZNot Avail.55 51121018.5ENE 7 55669
Milford Haven07:00ZNot Avail.55 50201018.2ENE 9 55144
Bedford07:00ZNot Avail.55 53121020NNE 12 55278
Shobdon07:00ZNot Avail.55 51121021NE 3 55324
Trawscoed07:00ZNot Avail.55 49151018.9E 22 Gusting to 32 55206
Aberdaron07:00ZNot Avail.55 50191020.5ENE 21 Gusting to 31 55311
Leconfield06:50ZClear55 52201023.1NE 10 5519
Brize Norton06:20ZPartly Cloudy55 52151019.1NE 10 55288
Fairford Royal Air Force Base06:56ZClear55 53201018.5NE 11 55285
Aberporth07:00ZNot Avail.55 50201019.2E 6 55436
Stansted Airport06:20ZClear55 54251019.1NNE 10 55347
Kinloss07:00ZFog55 5541027.0SW 5 5522
Inverness / Dalcross06:20ZMist55 551.121027.1CALM5529
Wick06:20ZClear55 5461027.1S 4 55127
Kirkwall Airport06:20ZMostly Cloudy55 5441027.1ESE 2 5568
Southend-On-Sea 06:20ZNot Avail.55 54101017.1N 7 5549
London / Heathrow Airport06:20ZClear55 54101017.1NE 7 5578
Farnborough06:20ZClear55 52171017.1NNE 8 55213
Bournemouth Airport06:20ZNot Avail.55 52201015.1NNE 10 5536
Cardiff-Wales Airport06:20ZClear55 50201018.1NE 17 55219
Birmingham / Airport06:20ZMostly Cloudy55 52251021.2NE 13 55324
Nottingham Weather Centre07:00ZNot Avail.54 51141022.5NE 8 52383
Rhyl07:00ZNot Avail.54 48171022.9ESE 5 53252
Altnaharra07:00ZNot Avail.54 N/A71027.0NW 1 265
Wittering07:00ZNot Avail.54 5371020.5NNE 11 51275
Boulmer06:50ZMostly Cloudy54 48251026.1NNE 8 5275
Tiree06:20ZClear54 46201026.1SSE 9 5139
Stornoway06:20ZFog54 540.181027.1NNE 6 5229
Sumburgh Cape 06:20ZFog54 540.371028.1CALM5416
East Midlands06:20ZMostly Cloudy54 52121022.2N 8 52308
Isle Of Man / Ronaldsway Airport06:20ZClear54 48121023.1E 6 5255
Biggin Hill 06:50ZClear54 5441017.1NE 8 52600
Manchester Airport06:20ZMostly Cloudy54 48251023.2ENE 8 52226
Little Rissington07:00ZNot Avail.53 5291019NE 17 48705
Capel Curig07:00ZNot Avail.53 48171022.7ENE 12 49708
Loftus Samos07:00ZNot Avail.53 48251025.1ENE 12 49190
Lyneham07:00ZNot Avail.53 52201018.5NE 17 48475
Sennybridge07:00ZNot Avail.52 49121020.5NNE 7 501007
Fylingdales07:00ZNot Avail.52 4825NE 13 48859
Benbecula06:20ZFog52 521.121026.1ENE 4 5119
Tees-Side06:20ZMostly Cloudy52 46121025.1NNE 9 49121
Leeds And Bradford06:20ZMostly Cloudy52 46251024.2NE 9 49682
Blackpool Airport06:20ZMostly Cloudy52 48101023.1E 6 5032
Luton Airport 06:20ZMostly Cloudy52 50201019.2NNE 10 49524
Liverpool Airport 06:20ZNot Avail.52 48201023.1NE 6 5085
Bristol / Lulsgate 06:20ZCloudy52 50201018.2NE 11 48620
Loch Glascanoch07:00ZFog51 5051027.5ESE 2 51869
Baltasound07:00ZMist51 501.371027.6CALM5149
Linton-On-Ouse07:00ZNot Avail.51 49201024.6NNW 7 4852
Walney Island07:00ZNot Avail.51 46251024NE 5 4949
Dunkeswell Aerodrome07:00ZNot Avail.50 4971017.0NNE 11 46826
Lake Vyrnwy07:00ZNot Avail.50 4881021.9ENE 13 451181
Bingley07:00ZNot Avail.50 47181024.3ENE 8 47859
Warcop Range07:00ZNot Avail.50 43251024.6E 11 Gusting to 31 46744
Charterhall07:00ZNot Avail.50 46301026.9NNE 7 47367
Strathallan07:00ZNot Avail.50 4991028.3E 2 50114
Cairnwell07:00ZNot Avail.50 420.12ESE 8 473061
Topcliffe Royal Air Force Base 06:50ZPartly Cloudy50 46201025.1NW 6 4891
Machrihanish07:00ZNot Avail.50 46191025.4E 13 4542
Newcastle 06:20ZMostly Cloudy50 45121026.2NE 4 49265
Glenanne07:00ZNot Avail.49 49111023.7NE 6 46528
Shap07:00ZNot Avail.49 45201025.1E 3 49816
Carlisle07:00ZNot Avail.49 45251025.5N 4991
Dundrennan07:00ZNot Avail.49 45201024.0NE 12 44374
Ballypatrick Forest07:00ZNot Avail.48 46201025.5ESE 9 44511
Crosby07:00ZNot Avail.48 47251023.2E 7 4526
Cairngorm07:00ZNot Avail.48 430.12ESE 13 434084
Aonach Mor07:00ZNot Avail.48 425SSE 7 453707
Hawarden07:00ZNot Avail.48 47131023NW 2 4832
Belfast / Harbour06:20ZClear48 46251024.1ENE 6 4516
Aviemore07:00ZClear47 470.121028.0NNW 1 47721
Tulloch Bridge07:00ZFog47 N/A131028.5E 4 777
Spadeadam07:00ZNot Avail.46 44201025.9ENE 10 41935
Saint Bees Head07:00ZNot Avail.46 40191024.0E 5 44406
Inverbervie07:00ZNot Avail.46 45201027.9W 4 44439
Leuchars06:50ZFog46 460.121027.1NNW 4 4439
Keswick07:00ZNot Avail.45 40301024.5W 2 45265
Glasgow Airport06:20ZClear45 451.121027.1NE 8 4126
Portglenone07:00ZNot Avail.44 4291024.9NW 2 44209
Prestwick Rnas07:00ZNot Avail.44 42351026.0NE 5 4185
Redesdale07:00ZNot Avail.43 42151027.0NNW 1 43692
Prestwick Airport06:20ZNot Avail.43 391.121026.1E 2 4365
Aberdeen / Dyce06:20ZFog Nearby43 431.871028.2CALM43213
Eglinton / Londonderr06:20ZClear43 41251025.1N 1 4329
Belfast / Aldergrove Airport06:20ZClear43 43251024.2NE 4 41265
Drumalbin07:00ZNot Avail.42 41201027.1ESE 3 42803
Castlederg07:00ZFog41 410.751025SSW 1 41167
Great Dun Fell07:00ZNot Avail.40 4025E 25 Gusting to 30 292778
West Freugh07:00ZNot Avail.40 39201025WSW 1 4036
Edinburgh Airport06:20ZPatchy Fog37 371.121027.2N 2 37134

Atlantic
Tropical Watch